Voltar ao catálogo

FALCON 9 R/B

AtivoHEO
NORAD 57046·ROCKET BODY·🇺🇸 United States

Lançado Jun 18, 2023 de Cape Canaveral Space Force Station

Loading…

Próximas Passagens (próximas 24 horas)

TLE

AtualizadoSource: Space-Track

Época: Sep 14, 2026, 11:15 UTC

1 57046U 23086B   26257.46903387  .00000037  00000-0  53915-2 0  9998
2 57046  26.1351 193.7209 7855928 209.7535  61.8380  1.46549078 16959

Acompanhe FALCON 9 R/B em tempo real com AllMySat

Download on the App Store